Regional Weather Roundup
Issued by NWS

Home | Current Version | Previous Version | Graphics & Text | Print | Product List | Glossary On
Versions: 1 2 3 4 5 6 7 8 9 10 11 12 13 14 15 16 17 18 19 20 21 22 23 24 25 26 27 28 29 30 31 32 33 34 35 36 37 38 39 40 41 42 43 44 45 46 47 48 49 50
000
ASUS43 KMKX 242221
RWRWI

WISCONSIN REGIONAL WEATHER ROUNDUP
NATIONAL WEATHER SERVICE MILWAUKEE/SULLIVAN WI
500 PM CDT FRI OCT 24 2014

NOTE: "FAIR" INDICATES FEW OR NO CLOUDS BELOW 12,000 FEET WITH NO
SIGNIFICANT WEATHER AND/OR OBSTRUCTIONS TO VISIBILITY.

WIZ001-002-006>008-014>016-023>028-242300-
NORTHWEST WISCONSIN

CITY           SKY/WX    TMP DP  RH WIND       PRES   REMARKS
SUPERIOR ARPT  CLEAR     68  51  55 SW12G17   29.74F
ASHLAND        CLEAR     65  51  60 S15G23    29.78R
HAYWARD        CLOUDY    60  51  72 SW13      29.83S
SIREN          MOSUNNY   62  52  71 S7        29.83S
CUMBERLAND     CLOUDY    55  52  88 SW10      29.85S
RICE LAKE      CLOUDY    58  53  81 S8        29.86S
CHETEK         CLOUDY    58  53  84 S3        29.86S
LADYSMITH      CLOUDY    58  51  77 S9        29.88R
EAU CLAIRE     CLOUDY    57  54  89 S5        29.87R FOG
MENOMONIE      CLOUDY    58  56  96 SW3       29.86S FOG
NEW RICHMOND   CLOUDY    59  56  89 SW6       29.86R
OSCEOLA        MOSUNNY   61  57  88 S5        29.87S
$$

WIZ003>005-009-010-017-018-242300-
NORTH CENTRAL WISCONSIN

CITY           SKY/WX    TMP DP  RH WIND       PRES   REMARKS
MANITOWISH WTR MOCLDY    59  49  68 SW6       29.83S
ARBOR VITAE    PTCLDY    59  49  68 S8        29.84S
WOODRUFF       PTCLDY    59  49  68 S8        29.84S
RHINELANDER    CLOUDY    57  45  64 SW8       29.87S
EAGLE RIVER    MOCLDY    59  41  52 SW5       29.84S
LAND O LAKES   CLEAR     61  42  48 SW8       29.84S
PHILLIPS       CLOUDY    58  49  72 SW10G17   29.85S
TOMAHAWK       CLOUDY    56  47  70 CALM      29.88R
MEDFORD        CLOUDY    55  49  78 S7        29.87F
MERRILL        CLOUDY    57  49  75 S6        29.87F
$$

WIZ029-030-035-036-043>047-242300-
CENTRAL WISCONSIN

CITY           SKY/WX    TMP DP  RH WIND       PRES   REMARKS
WAUSAU         CLOUDY    57  47  69 S6        29.86F
MOSINEE        MOCLDY    55  52  88 S6        29.89S
MARSHFIELD     CLOUDY    58  50  75 S6        29.87S
STEVENS POINT  CLOUDY    57  49  74 S5        29.89S
WAUPACA        MOCLDY    57  52  81 SE6       29.91S
WAUTOMA        CLOUDY    59  50  72 S6        29.91S
WISC RAPIDS    CLOUDY    59  50  72 S8        29.89F
CAMP DOUGLAS   CLOUDY    62  55  79 S5        29.88S
$$

WIZ011>013-019>022-031-037>040-048>050-242300-
NORTHEAST WISCONSIN

CITY           SKY/WX    TMP DP  RH WIND       PRES   REMARKS
ANTIGO         PTCLDY    53  49  86 S8        29.88S
SHAWANO        CLOUDY    56  49  78 S3        29.91S
OCONTO         CLEAR     54  49  83 SE6       29.90S
STURGEON BAY   CLEAR     54  48  82 S8        29.92S
GREEN BAY      MOCLDY    53  49  86 S7        29.91F FOG
MANITOWOC      CLEAR     52  49  89 S7        29.93S
APPLETON       MOCLDY    54  50  87 S8        29.92F
CLINTONVILLE   CLOUDY    54  50  87 S6        29.90F
OSHKOSH        PTCLDY    56  51  84 S7        29.91F
$$

WIZ032>034-041-042-053>061-242300-
SOUTHWEST WISCONSIN

CITY           SKY/WX    TMP DP  RH WIND       PRES   REMARKS
LA CROSSE      CLOUDY    61  57  87 S6        29.87S
SPARTA         CLOUDY    63  51  65 SW7       29.88S
VIROQUA        CLOUDY    58  58 100 SW7       29.90S
BOSCOBEL       CLOUDY    63  55  75 S5        29.90F
PRAIRIE DU CHI CLOUDY    59  56  90 CALM      29.90S
PLATTEVILLE    CLOUDY    61  55  81 S9        29.91F
$$

WIZ056-057-062-063-064-067-068-242300-
SOUTH CENTRAL WISCONSIN

CITY           SKY/WX    TMP DP  RH WIND       PRES   REMARKS
REEDSBURG      CLOUDY    60  51  72 S7        29.89S
BARABOO/DELLS  MOCLDY    60  48  64 S8        29.89F
LONE ROCK      CLOUDY    66  51  58 SW5       29.91R
MINERAL POINT  CLOUDY    61  52  72 S7        29.91S
MADISON        MOCLDY    61  50  67 S8        29.92F
MIDDLETON      CLOUDY    62  49  63 S9        29.91F
WATERTOWN      MOCLDY    56  51  84 S3        29.92F
MONROE         PTCLDY    59  50  72 S9G18     29.92F
JANESVILLE     MOCLDY    63  50  63 S6        29.93F
$$

WIZ051-052-058>065-066-070>072-242300-
SOUTHEAST WISCONSIN

CITY           SKY/WX    TMP DP  RH WIND       PRES   REMARKS
MILWAUKEE      MOCLDY    61  50  67 SW7       29.94F
WAUKESHA       CLEAR     59  50  72 SW7       29.96S
MILWAUKEE/TIMM CLEAR     61  46  59 SW6       29.95S
RACINE         CLEAR     57  50  77 S6        29.97S
BURLINGTON     CLEAR     59  49  71 SW6       29.94F
KENOSHA        CLEAR     59  52  77 SE6       29.95F
FOND DU LAC    MOCLDY    57  49  74 S8        29.91F
SHEBOYGAN      CLEAR     60  48  64 SW7       29.92F
WEST BEND      CLEAR     61  46  59 S6        29.93F
JUNEAU         MOCLDY    56  50  80 S5        29.93F
$$

LSZ147-162-242300-
LAKE SUPERIOR

STATION/POSITION TIME  TEMP    WIND        PRES    WAVE
                       AIR SEA DIR/SP/G            HT/PER
                 (UTC) (F)     (DEG/KT/KT) (MB)    (FT/S)
W MID LAKE BUOY  2150   49 47   CALM  /  2 1007.2F   1
DEVILS ISLAND    2200   57     160/  4/  5 1007.0F
PORT WING        2100   57      60/  5/  6 1008.1R
SAXON HARBOR     2100   71     200/ 12/ 18 1007.8F
$$

LMZ867-665-643>646-242300-
LAKE MICHIGAN

STATION/POSITION TIME  TEMP    WIND        PRES    WAVE
                       AIR SEA DIR/SP/G            HT/PER
                 (UTC) (F)     (DEG/KT/KT) (MB)    (FT/S)
CHAMBERS ISLAND  2100   50     200/  8/ 12 1012.9F
N MID LAKE BUOY  2150   49 51  200/ 16/ 17 1013.1S   2/ 4
NORTHPORT PIER   2100   53     170/  5/ 10 1012.9F
SISTER BAY       2012          240/  9/ 11   N/A
KEWAUNEE LAKESHO 2200   50     180/ 15/ 17 1012.4F
SHEBOYGAN LAKESH 2200   51 51  160/ 12/ 14 1013.9F
PORT WASHINGTON  2100   56     190/  4/  6 1014.6F
ATWATER BUOY     2200   53     150/ 10/ 14 1014.8F
MILWAUKEE LAKESH 2200   52     140/ 11/ 12   N/A
S MID LAKE BUOY  2150   53 54  180/  4/  6 1015.0F
KENOSHA   LAKESH 2200   53     170/  8/  9 1014.2F
$$

TC  - TEMPERATURE IN CELSIUS
VSB - VISIBILITY IN STATUTE MILES
WCI - WIND CHILL INDEX
HX  - HEAT INDEX




USA.gov is the U.S. government's official web portal to all federal, state and local government web resources and services.